McAlester, OK

3:38 PM CST on December 09, 2019 (GMT -0600)
McAlester Regional

Weather History for KMLC - September, 2019

Change the Weather History Date:

Tuesday, September 10, 2019

  Actual Average Record
Temperature  
Mean Temperature 82 °F -  
Max Temperature 93 °F 86 °F 99 °F (1963)
Min Temperature 72 °F 64 °F 46 °F (1976)
Cooling Degree Days 18    
Growing Degree Days 32 (Base 50)    
Moisture  
Dew Point 66 °F    
Average Humidity 59    
Maximum Humidity 84    
Minimum Humidity 37    
Precipitation  
Precipitation 0.00 in - - ()
Sea Level Pressure  
Sea Level Pressure 30.04 in    
Wind  
Wind Speed 6 mph (SSE)    
Max Wind Speed 12 mph    
Max Gust Speed 21 mph    
Visibility 10 miles    
Events      
Averages and records for this station are not official NWS values.
T = Trace of Precipitation, MM = Missing Value Source: NWS Daily Summary

Daily Weather History Graph

Daily Weather History Graph

Search for Another Location

Airport or City:

Astronomy

Sep. 10, 2019 Rise Set
Actual Time 7:02 AM CDT 7:37 PM CDT
Civil Twilight 6:36 AM CDT 8:02 PM CDT
Nautical Twilight 6:06 AM CDT 8:32 PM CDT
Astronomical Twilight 5:36 AM CDT 9:03 PM CDT
Moon 6:05 PM CDT (9/10) 3:39 AM CDT (9/10)
Length of Visible Light 13h 25m
Length of Day
12h 35m
Waxing Gibbous, 89% of the Moon is Illuminated
Sep 10
Waxing Gibbous
Sep 13
Full
Sep 21
Last Quarter
Sep 28
New
Oct 5
First Quarter

Hourly Weather History & Observations

Time (CDT) Temp. Heat Index Dew Point Humidity Pressure Visibility Wind Dir Wind Speed Gust Speed Precip Events Conditions
12:53 AM 79.0 °F - 64.0 °F 60% 30.00 in 10.0 mi South 5.8 mph - N/A   Clear
1:53 AM 78.1 °F - 64.9 °F 64% 30.01 in 10.0 mi South 6.9 mph - N/A   Clear
2:53 AM 77.0 °F - 64.9 °F 66% 30.02 in 10.0 mi SSE 5.8 mph - N/A   Clear
3:53 AM 75.0 °F - 66.0 °F 73% 30.01 in 10.0 mi SSE 5.8 mph - N/A   Clear
4:53 AM 73.9 °F - 66.0 °F 76% 30.02 in 10.0 mi SSE 3.5 mph - N/A   Mostly Cloudy
6:53 AM 72.0 °F - 66.9 °F 84% 30.04 in 10.0 mi South 5.8 mph - N/A   Clear
7:53 AM 73.9 °F - 68.0 °F 82% 30.07 in 10.0 mi Variable 5.8 mph - N/A   Clear
9:53 AM 78.1 °F - 70.0 °F 76% 30.09 in 10.0 mi Variable 4.6 mph - N/A   Clear
10:53 AM 82.9 °F 87.5 °F 71.1 °F 67% 30.09 in 10.0 mi South 9.2 mph - N/A   Clear
11:53 AM 86.0 °F 88.8 °F 66.9 °F 53% 30.09 in 10.0 mi SSW 11.5 mph 19.6 mph N/A   Clear
12:53 PM 88.0 °F 91.4 °F 68.0 °F 51% 30.08 in 10.0 mi SSW 10.4 mph - N/A   Clear
1:53 PM 91.9 °F 95.4 °F 66.9 °F 44% 30.06 in 10.0 mi Variable 6.9 mph - N/A   Clear
2:53 PM 91.9 °F 94.5 °F 66.0 °F 42% 30.04 in 10.0 mi Variable 3.5 mph - N/A   Scattered Clouds
3:53 PM 93.9 °F 95.6 °F 64.0 °F 37% 30.02 in 10.0 mi SSE 10.4 mph - N/A   Scattered Clouds
4:53 PM 91.9 °F 94.1 °F 64.9 °F 41% 30.01 in 10.0 mi Variable 6.9 mph - N/A   Partly Cloudy
5:53 PM 91.0 °F 92.6 °F 64.0 °F 41% 30.01 in 10.0 mi SSE 9.2 mph 20.7 mph N/A   Partly Cloudy
6:53 PM 88.0 °F 89.3 °F 64.0 °F 45% 30.01 in 10.0 mi South 9.2 mph - N/A   Clear
7:53 PM 84.0 °F 85.4 °F 64.0 °F 51% 30.01 in 10.0 mi South 4.6 mph - N/A   Clear
8:53 PM 82.9 °F 84.4 °F 64.0 °F 53% 30.03 in 10.0 mi Variable 4.6 mph - N/A   Clear
9:53 PM 79.0 °F - 64.9 °F 62% 30.04 in 10.0 mi ESE 3.5 mph - N/A   Clear
11:53 PM 78.1 °F - 66.0 °F 66% 30.06 in 10.0 mi Variable 4.6 mph - N/A   Clear